Miscellaneous Local Product
Issued by NWS North Platte, NE

Home | Current Version | Previous Version | Text Only | Print | Product List | Glossary On
Versions: 1 2 3 4 5 6 7 8 9 10 11 12 13 14 15 16 17 18 19 20 21 22 23 24 25 26 27 28 29 30 31 32 33 34 35 36 37 38 39 40 41 42 43 44 45 46 47 48 49 50
000
AXUS43 KLBF 301610
MISLBF


WESTERN AND NORTH CENTRAL NEBRASKA HOURLY WEATHER ROUNDUP
NATIONAL WEATHER SERVICE NORTH PLATTE NE
1100 AM CDT TUE JUN 30 2015

***STATIONS NOT REPORTING VARIABLES SUCH AS SKY/WEATHER OR
PRESSURE ARE PROVIDED BY THE NEBRASKA DEPARTMENT OF
ROADS...RAWS...AND APRS NETWORKS...AND ARE NOT UNDER
NATIONAL WEATHER SERVICE QUALITY CONTROL***

...OBSERVATIONS IN AND NEAR THE EASTERN PANHANDLE OF NEBRASKA...

CITY           SKY/WX    TMP DP  RH WIND       PRES   REMARKS
PINE RIDGE     PTSUNNY   77  58  51 W8        29.97F
CHADRON        MOSUNNY   80  60  50 W6        29.96F
ALLIANCE       SUNNY     81  61  50 SW5       30.01F
SIDNEY         MOSUNNY   84  60  44 W3        30.08F
WHITECLAY        N/A     79  60  51 NW3         N/A
BIG SPRINGS      N/A     84  66  54 CALM        N/A
$$

...OBSERVATIONS IN NORTH CENTRAL NEBRASKA...

CITY           SKY/WX    TMP DP  RH WIND       PRES   REMARKS
VALENTINE      PTSUNNY   82  62  50 SE12      29.93F
THEDFORD       PTSUNNY   88  60  39 W7        29.96F
AINSWORTH      PTSUNNY   79  61  54 SE10      29.95F
O`NEILL        PTSUNNY   74  64  70 E7        29.97S
ORD            MOSUNNY   81  61  50 E6        29.94F
BROKEN BOW     PTSUNNY   84  65  52 SW7       29.95F
VALENTINE NWR    N/A     80  62  53 E7          N/A
SPRINGVIEW       N/A     77  63  61 E8          N/A
HALSEY           N/A     85  60  43 SW3         N/A
BREWSTER         N/A     84  68  58 SE3         N/A
ROSE             N/A     87  76  68 E14         N/A  HX  97
NEWPORT          N/A     78  65  63 E12         N/A
SARGENT          N/A     83  65  53 CALM        N/A
CHAMBERS         N/A     78  63  60 E7          N/A
EWING            N/A     75  65  72 E3          N/A
$$

...OBSERVATIONS IN SOUTHWEST NEBRASKA AND FAR NORTHEAST COLORADO...

CITY           SKY/WX    TMP DP  RH WIND       PRES   REMARKS
WRAY           FAIR      91  52  27 SW9       30.05F
HOLYOKE        FAIR      86  63  45 SW5       30.05S
IMPERIAL       SUNNY     84  60  44 SW5       30.02F
OGALLALA       MOSUNNY   81  64  55 SW5       30.00F
NORTH PLATTE   MOSUNNY   84  66  54 SW5       29.97F
MCCOOK         SUNNY     84  60  44 SW9       29.99F
LEXINGTON      MOSUNNY   84  63  49 S7        29.97F
PAXTON           N/A     87  65  48 CALM        N/A
GOTHENBURG       N/A     86  61  43 SE3         N/A
CALLAWAY         N/A     85  69  59 S5          N/A
$$

...NORTH PLATTE AREA...

CITY           SKY/WX    TMP DP  RH WIND       PRES   REMARKS
AIRPORT        MOSUNNY   84  66  54 SW5       29.97F
DOWNTOWN         N/A     86  64  48 CALM        N/A
HILLCREST        N/A     83  64  52 S3          N/A
$$

...SOME WEATHER OBSERVATIONS FROM AROUND THE REGION...

CITY           SKY/WX    TMP DP  RH WIND       PRES   REMARKS
DENVER         MOSUNNY   81  52  36 W5        30.17F
LARAMIE        SUNNY     75  46  35 VRB6      30.29F
CHEYENNE       SUNNY     83  45  26 CALM      30.19F
SCOTTSBLUFF    MOSUNNY   81  58  45 VRB5      30.03F
RAPID CITY     CLOUDY    74  65  73 W5        29.94F
PIERRE         CLOUDY    74  64  71 SE13      29.90F
WINNER         FAIR      79  58  48 SE17      29.94S
SIOUX FALLS    CLOUDY    71  63  75 SW3       29.96R
OMAHA          CLOUDY    76  64  66 CALM      29.93F HAZE
GRAND ISLAND   MOSUNNY   86  61  42 SW10      29.95F
KANSAS CITY    PTSUNNY   80  66  62 NW9       29.95S
WICHITA        MOSUNNY   90  62  39 W5        29.98F HX  90
HAYS           PTSUNNY   91  57  31 SW13      29.99F HX  90
LIBERAL        SUNNY     88  61  40 SW13        N/A
GOODLAND       SUNNY     88  49  25 SW8       30.07F
$$



USA.gov is the U.S. government's official web portal to all federal, state and local government web resources and services.